This is the latest recevied weather packets stored in our database for station/object IZ3LCH-13. If no packets are shown the sender has not sent any weather packets the latest 10 day(s).
| Time | Temp. | Humidity | Pressure | Rain* | Wind** | Luminosity | Snow |
|---|---|---|---|---|---|---|---|
| 1777797603 | 21.67° C | 46% | 1018.9 hPa | 0 mm | - | - | - |
| 1777797303 | 21.67° C | 46% | 1018.8 hPa | 0 mm | - | - | - |
| 1777797003 | 21.67° C | 49% | 1018.8 hPa | 0 mm | - | - | - |
| 1777796703 | 21.11° C | 49% | 1018.7 hPa | 0 mm | - | - | - |
| 1777796403 | 21.11° C | 49% | 1018.9 hPa | 0 mm | - | - | - |
| 1777796103 | 20.56° C | 50% | 1018.9 hPa | 0 mm | - | - | - |
| 1777795803 | 20.56° C | 50% | 1018.8 hPa | 0 mm | - | - | - |
| 1777795503 | 20.56° C | 52% | 1018.9 hPa | 0 mm | - | - | - |
| 1777795203 | 20° C | 53% | 1018.9 hPa | 0 mm | - | - | - |
| 1777794904 | 19.44° C | 53% | 1018.7 hPa | 0 mm | - | - | - |
| 1777794603 | 19.44° C | 56% | 1019 hPa | 0 mm | - | - | - |
| 1777794303 | 19.44° C | 55% | 1018.9 hPa | 0 mm | - | - | - |
| 1777794003 | 18.89° C | 56% | 1018.9 hPa | 0 mm | - | - | - |
| 1777793703 | 18.89° C | 56% | 1018.8 hPa | 0 mm | - | - | - |
| 1777793403 | 18.33° C | 59% | 1018.9 hPa | 0 mm | - | - | - |
| 1777793103 | 18.33° C | 58% | 1019.3 hPa | 0 mm | - | - | - |
| 1777792803 | 17.78° C | 59% | 1019.2 hPa | 0 mm | - | - | - |
| 1777792503 | 17.78° C | 59% | 1019.1 hPa | 0 mm | - | - | - |
| 1777792203 | 17.78° C | 59% | 1019.1 hPa | 0 mm | - | - | - |
| 1777791903 | 17.22° C | 60% | 1019.2 hPa | 0 mm | - | - | - |
| 1777791603 | 17.22° C | 61% | 1019.2 hPa | 0 mm | - | - | - |
| 1777791303 | 16.67° C | 62% | 1019.1 hPa | 0 mm | - | - | - |
| 1777791003 | 16.67° C | 62% | 1018.9 hPa | 0 mm | - | - | - |
| 1777790703 | 16.11° C | 63% | 1019.1 hPa | 0 mm | - | - | - |
| 1777790403 | 15.56° C | 63% | 1019.1 hPa | 0 mm | - | - | - |
* Rain latest hour (hover to see other rain measurements)
** Current wind speed in m/s (hover to see current wind gust speed)